TimeEST,TemperatureF,Dew PointF,Humidity,Sea Level PressureIn,VisibilityMPH,Wind Direction,Wind SpeedMPH,Gust SpeedMPH,PrecipitationIn,Events,Conditions,WindDirDegrees,DateUTC
12:55 AM,24.3,20.5,85,30.34,10.0,South,6.9,-,N/A,,Clear,190,2013-01-08 05:55:00
1:55 AM,25.3,21.9,87,30.33,10.0,South,8.1,-,N/A,,Clear,190,2013-01-08 06:55:00
2:55 AM,26.6,23.2,87,30.31,10.0,South,5.8,-,N/A,,Clear,190,2013-01-08 07:55:00
3:55 AM,25.2,22.5,89,30.30,8.0,SW,3.5,-,N/A,,Clear,230,2013-01-08 08:55:00
4:55 AM,24.1,22.1,92,30.28,8.0,NW,3.5,-,N/A,,Clear,310,2013-01-08 09:55:00
5:55 AM,25.9,20.1,79,30.28,10.0,SW,3.5,-,N/A,,Clear,220,2013-01-08 10:55:00
6:55 AM,25.5,20.1,80,30.28,10.0,SW,5.8,-,N/A,,Clear,230,2013-01-08 11:55:00
7:55 AM,24.6,19.8,82,30.30,10.0,SSW,5.8,-,N/A,,Scattered Clouds,210,2013-01-08 12:55:00
8:55 AM,28.9,21.9,75,30.30,10.0,SW,9.2,-,N/A,,Mostly Cloudy,230,2013-01-08 13:55:00
9:55 AM,34.9,23.5,63,30.29,10.0,WSW,6.9,-,N/A,,Mostly Cloudy,250,2013-01-08 14:55:00
10:55 AM,38.8,23.5,54,30.26,10.0,SW,10.4,-,N/A,,Mostly Cloudy,230,2013-01-08 15:55:00
11:55 AM,40.8,22.3,48,30.25,10.0,WSW,12.7,-,N/A,,Mostly Cloudy,250,2013-01-08 16:55:00
12:55 PM,42.4,21.7,44,30.22,10.0,WSW,13.8,-,N/A,,Mostly Cloudy,240,2013-01-08 17:55:00
1:55 PM,43.5,22.1,43,30.23,10.0,WSW,10.4,19.6,N/A,,Mostly Cloudy,240,2013-01-08 18:55:00
2:55 PM,44.1,22.1,42,30.24,10.0,SW,9.2,-,N/A,,Mostly Cloudy,230,2013-01-08 19:55:00
3:55 PM,42.4,22.3,45,30.25,10.0,SW,11.5,-,N/A,,Mostly Cloudy,220,2013-01-08 20:55:00
4:55 PM,39.7,22.5,50,30.27,10.0,SW,5.8,-,N/A,,Partly Cloudy,230,2013-01-08 21:55:00
5:55 PM,37.2,21.9,54,30.29,10.0,SW,3.5,-,N/A,,Partly Cloudy,220,2013-01-08 22:55:00
6:55 PM,36.5,21.9,56,30.31,10.0,SW,4.6,-,N/A,,Scattered Clouds,220,2013-01-08 23:55:00
7:55 PM,32.9,22.1,65,30.33,10.0,WSW,4.6,-,N/A,,Mostly Cloudy,250,2013-01-09 00:55:00
8:55 PM,32.4,22.6,67,30.33,10.0,SW,5.8,-,N/A,,Mostly Cloudy,220,2013-01-09 01:55:00
9:55 PM,33.6,22.8,65,30.34,10.0,West,4.6,-,N/A,,Mostly Cloudy,260,2013-01-09 02:55:00
10:55 PM,31.5,23.0,71,30.35,10.0,West,5.8,-,N/A,,Mostly Cloudy,270,2013-01-09 03:55:00
11:55 PM,30.0,22.1,72,30.35,10.0,West,4.6,-,N/A,,Mostly Cloudy,260,2013-01-09 04:55:00